Wind_Speed
41 42 43 43 44 44 45 46 46 47 47 48 49 48 47 47 47 47 46 46 46 45 44 43 43 43 42 42 42 42 41 41 40 40 39 39 38 38 38 38 37 36 36
42 43 44 45 46 47 48 48 49 50 51 51 51 51 50 50 49 49 49 49 49 49 47 46 46 46 45 45 44 44 43 42 42 42 41 41 40 39 39 39 39 38 38
43 45 46 46 48 49 50 50 51 52 53 54 54 54 53 53 52 52 52 52 51 51 50 50 49 48 48 47 46 46 45 44 44 44 43 42 42 41 41 42 40 40 39
45 46 47 48 49 50 52 52 53 54 55 55 56 56 56 56 56 55 55 54 54 53 53 52 52 51 50 50 49 48 47 46 46 46 45 45 44 44 44 43 41 41 41
46 48 48 49 50 52 53 54 55 56 56 57 57 57 58 58 58 58 57 57 56 56 55 55 54 53 52 51 51 50 49 49 48 47 47 47 46 46 45 44 43 43 43
49 50 51 52 54 55 56 57 57 58 59 60 59 60 60 60 61 61 60 59 58 58 57 56 56 54 53 53 53 52 51 51 50 49 48 48 48 47 47 46 45 46 45
50 52 53 54 56 57 58 58 58 59 61 62 63 63 63 63 63 63 62 62 61 60 59 58 58 56 56 55 54 54 53 52 51 51 49 49 50 49 49 48 47 47 46
53 54 56 56 57 58 59 60 60 60 60 63 64 64 64 64 64 64 64 64 63 63 62 61 60 59 58 57 56 55 55 53 53 52 51 51 50 50 49 48 48 48 47
54 55 56 57 58 59 59 60 60 60 60 61 63 64 65 65 65 64 65 65 65 65 64 63 62 62 60 59 58 56 56 55 55 55 53 53 52 51 50 50 50 49 48
54 55 56 57 58 59 59 59 59 60 60 61 61 62 64 65 65 64 63 63 64 64 64 64 64 63 62 60 59 58 58 58 58 57 56 55 53 52 52 51 50 50 49
55 56 57 58 58 58 59 59 59 59 59 59 58 58 58 60 61 62 61 60 61 62 63 64 64 64 63 62 61 59 59 60 59 58 57 56 56 55 54 52 51 51 50
55 56 57 57 57 57 58 57 57 57 57 57 56 56 56 56 57 58 58 58 58 58 60 62 63 63 62 62 62 62 61 61 60 59 58 58 57 56 56 54 52 51 51
55 55 56 56 56 57 57 57 56 56 56 56 55 55 55 55 55 54 55 56 57 57 58 59 60 61 61 62 62 62 62 61 60 60 59 58 58 57 56 54 53 52 51
54 54 55 55 55 56 56 56 56 55 55 55 55 54 53 53 52 52 54 55 55 55 55 55 56 57 58 60 60 60 60 59 59 59 58 58 57 56 55 54 53 51 51
54 54 54 55 55 55 54 54 55 55 54 54 54 54 53 52 52 53 54 55 55 54 52 51 52 53 55 56 56 57 58 58 58 58 57 56 56 55 54 53 52 51 51
55 55 56 56 55 54 54 55 55 54 54 53 53 53 53 53 53 54 55 55 54 54 52 50 50 50 53 53 53 55 55 56 57 56 55 55 54 53 53 52 52 51 50
56 57 57 56 54 54 54 55 55 55 54 54 53 53 53 53 53 53 53 53 54 52 51 49 49 49 50 51 51 51 52 53 54 54 53 52 52 51 51 50 50 50 50
56 57 56 55 54 54 54 54 54 54 53 53 53 53 52 53 53 52 52 51 52 51 51 49 48 47 47 48 50 49 49 49 50 50 49 49 49 48 48 48 49 48 47
55 55 54 54 54 53 53 53 53 52 53 52 52 52 51 51 50 50 51 50 49 49 49 48 46 45 44 44 45 46 46 46 46 46 45 45 45 45 46 46 46 46 45
53 53 53 54 54 54 54 53 52 51 51 50 50 50 49 49 48 49 49 48 47 47 46 45 44 44 42 41 41 42 42 42 42 43 42 42 41 42 43 43 43 43 43
52 52 53 53 54 54 54 52 51 50 49 47 47 47 46 46 47 47 47 45 45 44 43 43 42 42 41 40 39 39 40 39 40 41 41 41 40 40 40 39 39 40 40
52 52 52 53 54 53 51 49 48 47 45 43 42 42 42 43 43 42 43 43 42 42 42 40 40 39 38 38 38 37 37 37 37 38 39 38 37 37 36 36 37 38 37
51 51 52 52 51 48 46 44 44 42 40 39 39 38 38 38 38 38 37 38 37 37 38 39 38 37 36 36 37 36 35 35 35 35 34 33 33 33 33 33 34 35 35
50 50 49 49 47 44 43 42 41 40 38 36 35 34 34 33 33 33 33 32 32 32 34 36 35 34 34 34 33 32 33 33 33 32 31 31 31 32 33 33 33 33 34
48 47 46 44 42 41 41 40 38 36 33 32 31 30 30 29 29 30 30 28 28 28 30 31 31 31 31 32 32 30 30 32 31 29 28 29 29 30 30 31 32 33 33
45 43 42 41 39 38 37 35 34 32 30 28 26 25 25 24 24 25 25 24 23 23 25 26 28 29 28 29 30 28 27 27 28 27 26 27 27 27 28 28 30 31 30
Wind_Direction
277 277 276 276 276 275 274 273 272 271 271 270 269 268 268 267 266 266 266 266 266 266 266 267 267 267 267 268 269 269 270 270 270 271 272 274 275 277 279 280 281 283 286
278 278 277 276 276 275 275 274 272 271 270 270 269 269 268 267 266 266 265 265 265 266 265 266 267 267 266 267 268 268 269 269 269 270 271 273 274 276 278 279 280 281 283
279 278 278 277 276 275 275 275 274 272 271 271 270 269 268 267 266 265 265 265 265 265 265 265 266 266 266 266 267 268 269 269 269 269 270 271 272 274 276 278 279 280 281
280 280 279 278 277 277 276 276 274 272 271 271 270 269 268 267 266 265 264 264 264 264 265 265 265 266 266 266 266 267 268 268 269 269 270 270 271 272 274 276 278 279 280
281 281 281 280 279 278 278 277 275 273 271 271 269 268 267 266 265 265 264 264 263 263 264 264 264 264 265 265 265 265 267 267 268 268 269 270 270 271 272 274 276 278 279
283 283 282 281 280 280 279 278 276 274 272 271 271 269 267 266 265 264 263 263 262 262 262 263 263 263 264 264 264 264 265 266 267 268 268 269 270 270 271 272 274 276 277
286 286 285 284 283 282 281 279 278 276 274 272 271 270 268 266 265 264 263 262 262 261 262 262 262 262 262 263 263 263 263 264 265 267 268 269 270 270 270 270 272 273 275
287 287 287 287 285 284 282 281 279 277 275 274 273 272 269 266 265 264 263 262 261 261 261 261 261 261 262 262 262 262 262 263 264 265 266 267 268 269 270 270 272 274 275
288 288 288 288 287 286 284 282 281 279 277 276 276 274 272 269 265 262 262 261 260 260 260 260 261 261 261 262 261 262 262 262 263 263 263 265 267 268 269 269 272 273 274
290 290 290 289 288 287 286 284 282 280 280 278 277 275 273 271 268 263 260 259 259 259 259 259 260 260 260 260 261 261 261 261 261 262 262 263 265 267 269 269 270 272 272
292 292 292 291 290 289 287 285 282 281 280 280 278 276 274 271 269 266 261 258 258 258 258 259 259 259 259 259 260 260 260 260 261 261 262 262 263 265 266 267 268 270 270
292 292 293 292 290 289 288 286 284 282 281 280 277 276 274 272 270 267 263 260 259 258 259 259 259 258 258 258 259 258 259 260 260 261 261 261 262 263 263 264 266 268 270
292 292 292 291 290 290 288 287 285 282 281 279 277 276 275 273 270 268 265 263 261 259 258 259 259 257 257 257 258 259 259 259 259 260 259 260 260 261 261 263 265 267 270
292 293 292 291 291 290 288 287 285 283 281 279 277 275 275 273 270 268 267 265 264 261 259 259 258 258 257 257 258 258 257 258 258 258 259 258 259 259 260 262 263 264 267
293 293 292 292 292 290 289 289 287 284 281 279 277 275 273 272 270 269 268 267 266 264 261 259 259 258 257 257 257 257 258 258 257 258 258 258 258 258 259 260 261 262 265
294 293 293 293 292 291 290 290 288 285 282 280 277 274 272 271 270 269 269 268 266 265 262 258 258 258 257 257 257 258 259 258 257 257 257 257 257 257 257 258 259 261 264
294 294 294 293 293 292 291 290 289 286 283 280 277 274 272 271 270 270 268 267 264 264 263 258 257 257 258 257 257 258 258 257 256 256 256 256 256 256 256 256 258 259 261
295 295 295 294 294 293 292 292 290 287 284 281 277 274 272 271 270 270 268 267 263 263 263 260 257 257 257 257 256 256 257 256 255 255 254 255 255 255 255 256 256 258 260
296 295 295 295 294 293 293 293 291 288 285 281 279 275 273 271 270 270 268 266 264 262 261 260 258 256 257 256 256 254 255 255 255 253 253 253 253 253 253 255 256 256 259
296 296 296 296 296 295 295 293 291 289 286 282 279 276 274 271 270 270 268 266 263 260 259 258 257 255 255 255 254 253 253 252 252 251 249 250 252 253 253 254 254 255 257
297 297 297 297 297 297 296 293 291 289 286 283 279 275 273 271 269 267 265 264 262 258 256 256 255 254 252 253 252 252 250 249 249 247 247 249 250 252 252 253 253 254 256
298 299 299 299 298 297 296 294 293 291 287 284 280 276 273 270 267 268 266 263 261 257 254 254 253 252 249 249 249 249 248 245 245 245 246 247 248 249 250 252 252 254 255
299 299 300 301 300 298 297 296 295 292 288 285 283 279 275 270 268 268 265 260 258 256 252 251 250 247 245 244 244 245 245 242 243 244 245 244 246 249 248 249 252 253 256
300 301 301 302 301 300 298 298 297 293 289 287 285 282 277 271 269 267 264 259 255 253 247 246 246 243 243 240 241 242 242 242 240 239 241 244 246 248 248 249 250 253 256
301 302 301 302 303 302 300 300 298 294 290 287 285 280 274 271 269 266 262 256 253 250 245 243 241 239 239 239 239 239 238 237 236 236 240 243 244 246 247 248 250 252 254
301 302 301 302 303 304 302 301 299 295 291 288 285 278 274 271 270 264 259 254 250 248 241 238 236 236 236 238 238 237 237 234 233 235 238 241 245 245 246 247 248 249 253
Height
5773 5772 5772 5771 5771 5771 5771 5771 5771 5771 5771 5772 5772 5773 5774 5775 5776 5777 5778 5779 5780 5781 5782 5783 5784 5785 5785 5786 5786 5787 5787 5788 5788 5789 5789 5789 5789 5789 5788 5787 5787 5786 5785
5763 5762 5762 5761 5761 5760 5760 5760 5760 5760 5760 5761 5761 5761 5762 5763 5764 5765 5766 5768 5769 5770 5771 5772 5773 5774 5775 5776 5777 5777 5778 5778 5779 5780 5780 5780 5780 5780 5779 5779 5778 5778 5777
5753 5752 5751 5751 5750 5749 5749 5748 5748 5748 5748 5749 5749 5749 5750 5751 5752 5753 5754 5755 5757 5758 5759 5761 5762 5763 5764 5765 5766 5767 5768 5768 5769 5770 5770 5771 5771 5771 5771 5770 5770 5769 5768
5743 5742 5741 5739 5738 5737 5736 5736 5735 5735 5735 5735 5735 5736 5736 5737 5739 5740 5741 5742 5744 5745 5747 5748 5750 5751 5752 5754 5755 5756 5757 5758 5759 5759 5760 5761 5761 5761 5761 5761 5760 5760 5759
5731 5730 5729 5727 5726 5724 5723 5722 5721 5720 5721 5720 5720 5721 5722 5723 5724 5725 5726 5728 5729 5731 5733 5735 5736 5738 5740 5741 5743 5744 5746 5747 5748 5748 5749 5750 5750 5750 5751 5751 5750 5750 5750
5720 5718 5716 5714 5712 5710 5709 5707 5706 5705 5704 5704 5704 5705 5706 5707 5708 5709 5711 5712 5714 5716 5718 5720 5723 5725 5727 5728 5730 5732 5733 5735 5736 5737 5738 5738 5739 5739 5740 5740 5740 5740 5740
5707 5705 5703 5700 5698 5696 5694 5691 5689 5688 5688 5686 5686 5688 5690 5690 5691 5693 5694 5696 5698 5701 5703 5705 5708 5710 5713 5715 5717 5719 5720 5722 5724 5725 5726 5727 5728 5728 5728 5729 5729 5729 5729
5694 5691 5688 5685 5683 5680 5678 5675 5672 5671 5671 5668 5668 5668 5670 5673 5673 5675 5676 5679 5681 5684 5687 5689 5692 5695 5698 5700 5703 5705 5707 5709 5711 5713 5714 5715 5715 5716 5716 5718 5718 5718 5718
5681 5677 5674 5670 5667 5664 5661 5658 5655 5654 5653 5651 5648 5647 5648 5651 5655 5658 5658 5661 5663 5666 5669 5672 5675 5678 5681 5684 5688 5690 5693 5695 5697 5699 5701 5702 5703 5704 5704 5706 5706 5707 5706
5667 5663 5660 5656 5652 5648 5645 5642 5639 5636 5634 5633 5631 5629 5628 5629 5631 5637 5642 5643 5645 5647 5651 5654 5658 5661 5664 5668 5672 5675 5678 5680 5682 5685 5687 5689 5690 5691 5692 5693 5694 5694 5694
5654 5650 5645 5641 5637 5633 5629 5626 5623 5620 5617 5615 5613 5611 5610 5610 5611 5614 5621 5626 5628 5630 5633 5636 5639 5643 5647 5651 5654 5658 5661 5664 5666 5669 5672 5674 5676 5678 5679 5680 5680 5681 5681
5641 5636 5631 5626 5622 5618 5614 5610 5607 5604 5601 5599 5597 5595 5594 5594 5595 5596 5600 5606 5611 5615 5616 5619 5622 5625 5629 5633 5636 5640 5644 5647 5650 5653 5656 5659 5661 5663 5665 5666 5667 5668 5668
5627 5622 5617 5612 5607 5603 5599 5595 5591 5588 5586 5583 5582 5580 5579 5579 5579 5580 5582 5587 5592 5597 5600 5602 5605 5608 5612 5615 5619 5622 5626 5629 5633 5637 5640 5643 5646 5648 5650 5652 5653 5655 5655
5613 5608 5603 5598 5593 5588 5583 5579 5576 5573 5570 5568 5566 5565 5564 5564 5563 5565 5567 5569 5573 5579 5584 5587 5589 5591 5595 5598 5602 5604 5608 5612 5616 5620 5624 5627 5630 5633 5635 5638 5640 5641 5642
5599 5594 5589 5584 5579 5574 5569 5564 5560 5557 5554 5552 5551 5550 5550 5550 5550 5551 5552 5553 5556 5560 5568 5573 5575 5577 5579 5582 5585 5588 5592 5596 5599 5604 5608 5611 5614 5618 5621 5624 5626 5628 5629
5585 5580 5575 5570 5564 5559 5554 5550 5545 5542 5539 5537 5536 5535 5535 5535 5536 5537 5537 5538 5540 5543 5549 5557 5560 5561 5563 5566 5569 5573 5577 5580 5584 5588 5592 5596 5600 5603 5607 5610 5612 5615 5616
5571 5566 5561 5555 5550 5545 5540 5535 5531 5527 5524 5522 5521 5520 5521 5521 5522 5523 5523 5524 5527 5528 5533 5541 5544 5546 5548 5551 5555 5558 5562 5565 5569 5574 5578 5582 5585 5589 5593 5596 5599 5602 5603
5557 5551 5546 5541 5535 5530 5525 5520 5516 5512 5509 5507 5506 5505 5506 5506 5507 5508 5508 5510 5512 5515 5518 5523 5529 5532 5535 5538 5541 5544 5547 5551 5556 5560 5564 5568 5572 5576 5580 5583 5586 5589 5591
5543 5537 5531 5526 5521 5516 5511 5506 5501 5497 5494 5492 5491 5491 5491 5491 5492 5493 5494 5496 5498 5501 5504 5508 5514 5518 5521 5524 5527 5531 5534 5538 5542 5546 5551 5555 5559 5563 5567 5571 5574 5577 5580
5529 5523 5518 5512 5507 5501 5496 5491 5487 5483 5480 5478 5477 5476 5477 5477 5478 5478 5480 5482 5485 5488 5491 5495 5500 5505 5508 5511 5514 5518 5522 5526 5530 5534 5539 5543 5548 5552 5556 5560 5563 5566 5569
5516 5510 5504 5499 5493 5487 5482 5476 5472 5469 5466 5464 5463 5463 5463 5463 5463 5464 5466 5469 5471 5474 5478 5482 5487 5492 5496 5499 5503 5506 5511 5515 5519 5523 5528 5533 5537 5542 5545 5549 5552 5556 5559
5504 5497 5491 5485 5480 5474 5468 5463 5458 5455 5453 5451 5450 5450 5450 5450 5450 5451 5453 5455 5457 5461 5466 5470 5475 5480 5485 5489 5493 5496 5500 5505 5509 5514 5518 5523 5527 5532 5536 5540 5543 5546 5549
5492 5486 5480 5473 5467 5461 5455 5451 5446 5442 5441 5439 5438 5438 5438 5439 5439 5440 5441 5443 5446 5449 5453 5458 5463 5469 5474 5478 5483 5487 5490 5495 5500 5505 5509 5514 5518 5523 5527 5530 5534 5537 5540
5480 5474 5468 5462 5456 5451 5445 5440 5435 5431 5430 5429 5428 5427 5428 5429 5429 5429 5431 5433 5436 5439 5443 5447 5452 5458 5463 5469 5473 5477 5481 5486 5491 5496 5501 5507 5511 5515 5518 5522 5525 5528 5531
5470 5464 5458 5452 5447 5441 5435 5430 5425 5422 5421 5420 5419 5418 5418 5419 5420 5420 5422 5425 5428 5432 5435 5438 5443 5449 5455 5460 5464 5468 5473 5479 5484 5490 5495 5499 5504 5507 5510 5514 5517 5520 5523
5460 5454 5449 5443 5437 5433 5427 5422 5417 5415 5413 5412 5411 5410 5410 5411 5411 5412 5414 5417 5421 5425 5428 5432 5437 5442 5447 5453 5457 5462 5467 5472 5478 5483 5488 5492 5496 5500 5503 5507 5510 5512 5515